Camden, AR

7:23 AM CST on January 20, 2018 (GMT -0600)
Harrell

Weather History for KCDH - January, 2013

Change the Weather History Date:

Friday, January 11, 2013

  Actual Average Record
Temperature  
Mean Temperature 56 °F -  
Max Temperature 71 °F 48 °F 77 °F (1949)
Min Temperature 41 °F 27 °F 2 °F (1982)
Degree Days  
Heating Degree Days 9    
Growing Degree Days 6 (Base 50)    
Moisture  
Dew Point 47 °F    
Average Humidity 74    
Maximum Humidity 100    
Minimum Humidity 41    
Precipitation  
Precipitation 0.00 in - - ()
Sea Level Pressure  
Sea Level Pressure 29.96 in    
Wind  
Wind Speed 5 mph (SSE)    
Max Wind Speed 13 mph    
Max Gust Speed 17 mph    
Visibility 8 miles    
Events Fog , Rain    
Averages and records for this station are not official NWS values.
T = Trace of Precipitation, MM = Missing Value Source: NWS Daily Summary

Daily Weather History Graph

Daily Weather History Graph

Search for Another Location

Airport or City:

Trip Planner

Search our weather history database for the weather conditions in past years. The results will help you decide how hot, cold, wet, or windy it might be!

Date:

Astronomy

Jan. 11, 2013 Rise Set
Actual Time 7:16 AM CST 5:22 PM CST
Civil Twilight 6:48 AM CST 5:49 PM CST
Nautical Twilight 6:18 AM CST 6:20 PM CST
Astronomical Twilight 5:48 AM CST 6:50 PM CST
Moon 6:51 AM CST (1/11) 5:38 PM CST (1/11)
Length of Visible Light 11h 00m
Length of Day
10h 06m
Waning Crescent, 0% of the Moon is Illuminated
Jan 11
Waning Crescent
Jan 11
New
Jan 18
First Quarter
Jan 26
Full
Feb 3
Last Quarter

Hourly Weather History & Observations

Time (CST) Temp. Windchill Dew Point Humidity Pressure Visibility Wind Dir Wind Speed Gust Speed Precip Events Conditions
12:15 AM 51.8 °F - 50.0 °F 94% 29.99 in 9.0 mi SSW 3.5 mph - N/A   Clear
12:35 AM 50.0 °F - 48.2 °F 94% 29.99 in 1.2 mi SSW 3.5 mph - N/A   Clear
12:55 AM 50.0 °F - 48.2 °F 94% 29.99 in 2.0 mi South 3.5 mph - N/A   Clear
1:15 AM 48.2 °F - 48.2 °F 100% 30.00 in 10.0 mi SSW 3.5 mph - N/A   Clear
1:35 AM 48.2 °F - 46.4 °F 93% 30.01 in 5.0 mi SSE 4.6 mph - N/A   Clear
1:55 AM 46.4 °F 44.3 °F 44.6 °F 93% 30.01 in 9.0 mi SSE 4.6 mph - N/A   Clear
2:15 AM 48.2 °F - 46.4 °F 93% 30.01 in 10.0 mi SSE 5.8 mph - N/A   Clear
2:35 AM 46.4 °F - 44.6 °F 93% 30.02 in 7.0 mi Calm Calm - N/A   Clear
2:55 AM 46.4 °F - 44.6 °F 93% 30.02 in 3.0 mi Calm Calm - N/A   Clear
3:15 AM 46.4 °F - 44.6 °F 93% 30.02 in 0.8 mi Calm Calm - N/A   Mist
3:35 AM 44.6 °F - 42.8 °F 93% 30.01 in 3.0 mi Calm Calm - N/A   Clear
3:55 AM 44.6 °F - 42.8 °F 93% 30.01 in 0.5 mi Calm Calm - N/A Fog Fog
4:15 AM 42.8 °F - 41.0 °F 93% 30.00 in 0.2 mi Calm Calm - N/A Fog Fog
4:35 AM 41.0 °F 39.0 °F 39.2 °F 93% 29.99 in 0.2 mi SSE 3.5 mph - N/A Fog Fog
4:55 AM 42.8 °F 41.1 °F 41.0 °F 93% 29.99 in 3.0 mi South 3.5 mph - N/A   Clear
5:15 AM 46.4 °F 42.9 °F 44.6 °F 93% 29.99 in 10.0 mi South 6.9 mph - N/A   Clear
5:35 AM 46.4 °F 43.5 °F 44.6 °F 93% 29.99 in 10.0 mi South 5.8 mph - N/A   Clear
5:55 AM 46.4 °F 45.2 °F 44.6 °F 93% 30.00 in 10.0 mi South 3.5 mph - N/A   Clear
6:15 AM 46.4 °F 45.2 °F 44.6 °F 93% 30.00 in 10.0 mi South 3.5 mph - N/A   Clear
6:35 AM 44.6 °F 43.1 °F 42.8 °F 93% 30.00 in 7.0 mi South 3.5 mph - N/A   Clear
6:55 AM 42.8 °F 41.1 °F 41.0 °F 93% 30.00 in 0.5 mi SSE 3.5 mph - N/A Fog Fog
7:15 AM 44.6 °F 43.1 °F 41.0 °F 87% 29.99 in 2.0 mi SSE 3.5 mph - N/A   Clear
7:35 AM 42.8 °F - 41.0 °F 93% 30.00 in 0.8 mi Calm Calm - N/A   Mist
7:55 AM 44.6 °F 43.1 °F 44.6 °F 100% 30.01 in 3.0 mi SSE 3.5 mph - N/A   Clear
8:15 AM 48.2 °F - 46.4 °F 93% 30.02 in 6.0 mi SSE 3.5 mph - N/A   Clear
8:35 AM 48.2 °F - 46.4 °F 93% 30.02 in 9.0 mi South 5.8 mph - N/A   Clear
8:55 AM 50.0 °F - 48.2 °F 94% 30.03 in 10.0 mi SSE 4.6 mph - N/A   Clear
9:15 AM 51.8 °F - 48.2 °F 88% 30.03 in 10.0 mi South 6.9 mph - N/A   Clear
9:35 AM 55.4 °F - 48.2 °F 77% 30.03 in 10.0 mi South 5.8 mph - N/A   Clear
10:15 AM 59.0 °F - 48.2 °F 67% 30.02 in 10.0 mi South 8.1 mph - N/A   Clear
10:35 AM 59.0 °F - 48.2 °F 67% 30.02 in 10.0 mi South 6.9 mph - N/A   Clear
10:55 AM 62.6 °F - 48.2 °F 59% 30.02 in 10.0 mi SSW 6.9 mph - N/A   Clear
11:15 AM 64.4 °F - 48.2 °F 56% 30.01 in 10.0 mi SSW 9.2 mph - N/A   Clear
11:55 AM 66.2 °F - 48.2 °F 52% 29.99 in 10.0 mi South 6.9 mph - N/A   Clear
12:15 PM 66.2 °F - 48.2 °F 52% 29.98 in 10.0 mi SSW 8.1 mph - N/A   Clear
12:35 PM 66.2 °F - 48.2 °F 52% 29.97 in 10.0 mi South 6.9 mph - N/A   Clear
12:55 PM 66.2 °F - 48.2 °F 52% 29.96 in 10.0 mi South 9.2 mph - N/A   Clear
1:15 PM 66.2 °F - 48.2 °F 52% 29.95 in 10.0 mi SSW 6.9 mph - N/A   Clear
1:35 PM 66.2 °F - 48.2 °F 52% 29.94 in 10.0 mi SSW 5.8 mph - N/A   Clear
1:55 PM 68.0 °F - 48.2 °F 49% 29.93 in 10.0 mi South 5.8 mph - N/A   Clear
2:15 PM 71.6 °F - 46.4 °F 41% 29.93 in 10.0 mi SSE 9.2 mph - N/A   Clear
2:35 PM 71.6 °F - 46.4 °F 41% 29.93 in 10.0 mi SSE 6.9 mph - N/A   Clear
2:55 PM 71.6 °F - 46.4 °F 41% 29.93 in 10.0 mi South 4.6 mph - N/A   Clear
3:15 PM 71.6 °F - 46.4 °F 41% 29.92 in 10.0 mi South 9.2 mph - N/A   Clear
3:35 PM 71.6 °F - 46.4 °F 41% 29.92 in 10.0 mi SSE 10.4 mph - N/A   Clear
3:55 PM 69.8 °F - 46.4 °F 43% 29.91 in 10.0 mi SE 12.7 mph - N/A   Clear
4:15 PM 69.8 °F - 46.4 °F 43% 29.91 in 10.0 mi SSE 9.2 mph - N/A   Clear
4:35 PM 68.0 °F - 46.4 °F 46% 29.90 in 10.0 mi SSE 12.7 mph 17.3 mph N/A   Clear
4:55 PM 66.2 °F - 46.4 °F 49% 29.90 in 10.0 mi SSE 9.2 mph - N/A   Clear
5:15 PM 64.4 °F - 46.4 °F 52% 29.91 in 10.0 mi SE 4.6 mph - N/A   Clear
5:35 PM 62.6 °F - 48.2 °F 59% 29.91 in 10.0 mi SE 8.1 mph - N/A   Clear
5:55 PM 60.8 °F - 48.2 °F 63% 29.92 in 10.0 mi SSE 6.9 mph - N/A   Clear
6:15 PM 59.0 °F - 48.2 °F 67% 29.92 in 10.0 mi SE 5.8 mph - N/A   Clear
6:35 PM 59.0 °F - 48.2 °F 67% 29.92 in 10.0 mi SE 8.1 mph - N/A Rain Light Rain
6:55 PM 59.0 °F - 48.2 °F 67% 29.91 in 10.0 mi SE 9.2 mph - N/A   Scattered Clouds
7:15 PM 59.0 °F - 50.0 °F 72% 29.91 in 10.0 mi SE 8.1 mph - N/A   Partly Cloudy
7:35 PM 59.0 °F - 50.0 °F 72% 29.90 in 10.0 mi SE 6.9 mph - N/A   Clear
7:55 PM 59.0 °F - 50.0 °F 72% 29.91 in 10.0 mi SSE 5.8 mph - N/A   Clear
8:15 PM 57.2 °F - 50.0 °F 77% 29.91 in 10.0 mi SSE 5.8 mph - N/A   Clear
8:35 PM 57.2 °F - 50.0 °F 77% 29.91 in 10.0 mi SSE 4.6 mph - N/A   Clear
8:55 PM 59.0 °F - 50.0 °F 72% 29.91 in 10.0 mi SSE 8.1 mph - N/A   Partly Cloudy
9:15 PM 59.0 °F - 50.0 °F 72% 29.92 in 10.0 mi SSE 4.6 mph - N/A   Clear
9:35 PM 59.0 °F - 50.0 °F 72% 29.91 in 10.0 mi SE 5.8 mph - N/A   Clear
9:55 PM 57.2 °F - 50.0 °F 77% 29.91 in 10.0 mi SSE 4.6 mph - N/A   Clear
10:15 PM 59.0 °F - 50.0 °F 72% 29.92 in 10.0 mi SSE 4.6 mph - N/A   Partly Cloudy
10:35 PM 57.2 °F - 50.0 °F 77% 29.92 in 10.0 mi SE 6.9 mph - N/A   Partly Cloudy
10:55 PM 57.2 °F - 50.0 °F 77% 29.92 in 10.0 mi SE 6.9 mph - N/A   Partly Cloudy
11:15 PM 57.2 °F - 50.0 °F 77% 29.92 in 10.0 mi SE 3.5 mph - N/A   Clear
11:35 PM 57.2 °F - 50.0 °F 77% 29.93 in 10.0 mi Calm Calm - N/A   Scattered Clouds
11:55 PM 57.2 °F - 50.0 °F 77% 29.92 in 10.0 mi Calm Calm - N/A   Overcast